Regional Weather Roundup
Issued by NWS

Home | Current Version | Previous Version | Text Only | Print | Product List | Glossary Off
Versions: 1 2 3 4 5 6 7 8 9 10 11 12 13 14 15 16 17 18 19 20 21 22 23 24 25 26 27 28 29 30 31 32 33 34 35 36 37 38 39 40 41 42 43 44 45 46 47 48 49 50

000
ASUS43 KDTX 052310
RWRMI
MICHIGAN HOURLY REGIONAL WEATHER ROUNDUP
NATIONAL WEATHER SERVICE DETROIT/PONTIAC MI
700 PM EDT THU MAY 05 2016

NOTE: "FAIR" INDICATES FEW OR NO CLOUDS BELOW 12,000 FEET WITH NO
SIGNIFICANT WEATHER AND/OR OBSTRUCTION TO VISIBILITY.

MIZ047>049-052>055-059>063-066>070-074>076-081>083-060000-
SOUTHEAST LOWER MICHIGAN

CITY           SKY/WX    TMP DP  RH WIND       PRES   REMARKS
ADRIAN         SUNNY     64  38  38 N20       29.87R
ALMA           SUNNY     65  38  37 NW9       29.89S
ANN ARBOR      MOSUNNY   64  39  39 NE16      29.86S
BAD AXE        SUNNY     57  37  47 NE8       29.90S
CARO           SUNNY     61  34  36 N9        29.88F
DETROIT CITY   MOSUNNY   64  34  32 N16G28    29.85S
DETROIT        PTSUNNY   64  35  34 N17       29.85S
FLINT          SUNNY     66  38  35 N16       29.88F
GROSSE ILE     MOSUNNY   64  28  25 N17G25    29.83S
HILLSDALE      SUNNY     63  32  31 N12       29.88S
HOWELL         SUNNY     62  37  38 N9        29.88S

CITY           SKY/WX    TMP DP  RH WIND       PRES   REMARKS
JACKSON        MOSUNNY   63  39  41 N14       29.88S
LAMBERTVILLE   MOSUNNY   65  40  39 NE10G18   29.85S
LANSING        MOSUNNY   65  43  44 NE9       29.89F
LAPEER         FAIR      62  32  32 NE10G16   29.88S
MASON          MOSUNNY   62  42  48 NE8       29.89S
MONROE         PTSUNNY   63  40  42 N17G23    29.84S
MT. CLEMENS    SUNNY     62  36  38 N18G24    29.85S
PONTIAC        MOSUNNY   63  36  36 N13       29.86S
PORT HOPE        N/A     50  42  74 NW5       29.88F
PORT HURON     SUNNY     61  34  36 N13G18    29.86S
TRI CITIES     SUNNY     62  40  44 NE10      29.90S
MIDLAND        FAIR      59  42  52 E12       29.89F
TROY           SUNNY     64  34  32 N16G28    29.87S
SAGINAW HB     SUNNY     63  39  42 N6        29.89S
$$
MIZ043>046-050>051-056>058-064>065-071>073-077>080-060000-
SOUTHWEST LOWER MICHIGAN

CITY           SKY/WX    TMP DP  RH WIND       PRES   REMARKS
BATTLE CREEK   MOSUNNY   62  44  51 NW12      29.90S
BENTON HARBOR  SUNNY     48  40  73 VRB7      29.97S
BIG RAPIDS     SUNNY     64  37  36 NW10      29.90S
COLDWATER      CLOUDY    63  40  43 N10G20    29.89S
FREMONT        FAIR      62  35  37 NW13      29.92S
HOLLAND        SUNNY    N/A N/A N/A NW12      29.95S
GRAND RAPIDS   PTSUNNY   67  43  41 NW12      29.90S
IONIA          FAIR      64  38  38 N7        29.88F
KALAMAZOO      MOSUNNY   62  43  49 NW16      29.91S
LUDINGTON      SUNNY     53  36  52 NW6       29.96F
MARSHALL       MOSUNNY   65  40  39 CALM      29.88S
MOUNT PLEASANT SUNNY     64  42  45 CALM      29.88S
MUSKEGON       MOSUNNY   58  39  49 W10       29.94S
SOUTH HAVEN    SUNNY     48  41  74 N7        29.96S
$$
MIZ016>042-060000-
NORTHERN LOWER MICHIGAN

CITY           SKY/WX    TMP DP  RH WIND       PRES   REMARKS
ALPENA         SUNNY     63  41  44 N12       29.89F
BEAVER ISLAND  MOSUNNY   50  35  57 SW7       29.93F
BELLAIRE       SUNNY     55  36  47 W6        29.94F
CADILLAC       MOSUNNY   60  43  51 N6        29.91S
CHARLEVOIX     SUNNY     51  36  56 W9        29.97S
FRANKFORT      SUNNY     55  36  48 NW5       29.95F
GAYLORD        SUNNY     60  39  45 W7        29.91F
GRAYLING       SUNNY     62  39  41 W9        29.91F
HARBOR SPRINGS SUNNY     45  38  76 SW7       29.94S
HOUGHTON LAKE  MOSUNNY   63  39  41 NW12      29.90S
MANISTEE       SUNNY     50  34  53 NW6       29.97S
OSCODA         SUNNY     57  41  55 NE9       29.89S
PELLSTON       SUNNY     60  38  43 W7        29.92F
ROGERS CITY    SUNNY     56  40  56 N6        29.91F
TRAVERSE CITY  PTSUNNY   51  38  60 NE7       29.93F
$$
MIZ007>008-015-060000-
EASTERN UPPER MICHIGAN

CITY           SKY/WX    TMP DP  RH WIND       PRES   REMARKS
KINROSS          N/A     52  36  54 N9        29.92R
MACKINAC ISLAN SUNNY     52  38  59 W10       29.92S
NEWBERRY       CLOUDY    58  36  43 N6        29.91S
S. S. MARIE    SUNNY     53  34  48 NW10      29.92S
MUNISING         N/A     49  37  63 N5        29.89F
$$
MIZ004>006-011>014-085-060000-
CENTRAL UPPER MICHIGAN

CITY           SKY/WX    TMP DP  RH WIND       PRES   REMARKS
MANISTIQUE     MOSUNNY   49  37  61 S9        29.92F
ESCANABA       SUNNY     55  36  47 S8        29.92S
MENOMINEE      MOSUNNY   61  36  39 E10       29.92F
SAWYER-GWINN   SUNNY     63  32  31 NE8       29.89F
$$
MIZ001>003-009>011-084-060000-
WESTERN UPPER MICHIGAN

CITY           SKY/WX    TMP DP  RH WIND       PRES   REMARKS
IRON MOUNTAIN  SUNNY     70  26  19 W7        29.87F
HOUGHTON       MOSUNNY   56  35  45 E9        29.85F
COPPER HARBOR    N/A     49  35  58 SW12G17   29.87S
IRONWOOD         N/A     72  39  30 SW14      29.84R
$$

ABBREVIATIONS USED IN REMARKS
   TC - TEMPERATURE IN CELSIUS
  WCI - WIND CHILL INDEX
   HX - HEAT INDEX
  VSB - VISIBILITY




USA.gov is the U.S. government's official web portal to all federal, state and local government web resources and services.